Weather History for KSLE - April, 2013

Change the Weather History Date:

Wednesday, April 3, 2013

  Actual Average Record
Temperature  
Mean Temperature 53 °F 49 °F  
Max Temperature 65 °F 59 °F 76 °F (2000)
Min Temperature 40 °F 39 °F 24 °F (1935)
Degree Days  
Heating Degree Days 12 16  
Month to date heating degree days 29 48  
Since 1 July heating degree days 3621 3851  
Cooling Degree Days 0 0  
Month to date cooling degree days 0 0  
Year to date cooling degree days 0 0  
Growing Degree Days 2 (Base 50)    
Moisture  
Dew Point 46 °F    
Average Humidity 82    
Maximum Humidity 100    
Minimum Humidity 63    
Precipitation  
Precipitation 0.00 in 0.11 in 0.83 in (1928)
Month to date precipitation 0.00 0.33  
Year to date precipitation 5.26 14.84  
Snow  
Snow 0.00 in - - ()
Month to date snowfall 0.0  
Snow Depth 0.00 in    
Sea Level Pressure  
Sea Level Pressure 30.08 in    
Wind  
Wind Speed 2 mph (North)    
Max Wind Speed 8 mph    
Max Gust Speed 9 mph    
Visibility 8 miles    
Events Fog    
T = Trace of Precipitation, MM = Missing Value Source: NWS Daily Summary

Daily Weather History Graph

Daily Weather History Graph

Search for Another Location

Airport or City:

Trip Planner

Search our weather history database for the weather conditions in past years. The results will help you decide how hot, cold, wet, or windy it might be!

Date:

Astronomy

Apr. 03, 2013 Rise Set
Actual Time 6:48 AM PDT 7:42 PM PDT
Civil Twilight 6:18 AM PDT 8:12 PM PDT
Nautical Twilight 5:43 AM PDT 8:48 PM PDT
Astronomical Twilight 5:06 AM PDT 9:25 PM PDT
Moon 2:50 AM PDT (4/3) 12:45 PM PDT (4/3)
Length of Visible Light 13h 53m
Length of Day
12h 54m
Last Quarter, 43% of the Moon is Illuminated
Apr 3
Last Quarter
Apr 10
New
Apr 18
First Quarter
Apr 25
Full
May 2
Last Quarter

Hourly Weather History & Observations

Time (PDT) Temp. Windchill Dew Point Humidity Pressure Visibility Wind Dir Wind Speed Gust Speed Precip Events Conditions
12:56 AM 46.0 °F - 44.1 °F 93% 30.16 in 10.0 mi Calm Calm - N/A   Clear
1:56 AM 45.0 °F - 43.0 °F 93% 30.17 in 10.0 mi Calm Calm - N/A   Clear
2:56 AM 44.1 °F - 42.1 °F 93% 30.16 in 10.0 mi Calm Calm - N/A   Clear
3:56 AM 43.0 °F - 41.0 °F 93% 30.16 in 10.0 mi Calm Calm - N/A   Clear
4:56 AM 42.1 °F - 41.0 °F 96% 30.15 in 10.0 mi Calm Calm - N/A   Clear
5:20 AM 41.0 °F - 41.0 °F 100% 30.15 in 10.0 mi Calm Calm - N/A   Partly Cloudy
5:56 AM 42.1 °F - 39.9 °F 92% 30.14 in 10.0 mi Calm Calm - N/A   Clear
6:30 AM 41.0 °F - 39.2 °F 93% 30.14 in 10.0 mi Calm Calm - N/A   Scattered Clouds
6:38 AM 41.0 °F - 39.2 °F 93% 30.14 in 10.0 mi Calm Calm - N/A   Mostly Cloudy
6:56 AM 41.0 °F - 39.9 °F 96% 30.14 in 10.0 mi Calm Calm - N/A Fog Patches of Fog
7:56 AM 46.0 °F - 44.1 °F 93% 30.13 in 10.0 mi Calm Calm - N/A   Overcast
8:14 AM 46.4 °F 43.5 °F 44.6 °F 93% 30.13 in 1.0 mi NNE 5.8 mph - N/A   Overcast
8:56 AM 46.0 °F 43.9 °F 46.0 °F 100% 30.13 in 0.5 mi NE 4.6 mph - N/A Fog Fog
9:56 AM 46.9 °F - 46.9 °F 100% 30.14 in 0.5 mi Calm Calm - N/A Fog Fog
10:03 AM 46.4 °F 45.2 °F 46.4 °F 100% 30.13 in 2.5 mi North 3.5 mph - N/A   Overcast
10:56 AM 48.9 °F - 46.9 °F 93% 30.13 in 2.5 mi NNE 4.6 mph - N/A   Overcast
11:56 AM 52.0 °F - 48.0 °F 86% 30.12 in 3.0 mi WNW 3.5 mph - N/A   Overcast
12:40 PM 55.4 °F - 48.2 °F 77% 30.11 in 10.0 mi Calm Calm - N/A   Scattered Clouds
12:56 PM 55.0 °F - 48.0 °F 77% 30.12 in 10.0 mi NW 3.5 mph - N/A   Partly Cloudy
1:56 PM 59.0 °F - 48.9 °F 69% 30.09 in 10.0 mi NNE 3.5 mph - N/A   Partly Cloudy
2:56 PM 60.1 °F - 48.9 °F 67% 30.06 in 10.0 mi NNE 5.8 mph - N/A   Clear
3:56 PM 61.0 °F - 50.0 °F 67% 30.03 in 10.0 mi NNE 5.8 mph - N/A   Clear
4:56 PM 64.0 °F - 51.1 °F 63% 30.01 in 10.0 mi NNW 5.8 mph - N/A   Clear
5:56 PM 63.0 °F - 51.1 °F 65% 29.99 in 10.0 mi North 5.8 mph - N/A   Clear
6:56 PM 61.0 °F - 52.0 °F 72% 29.96 in 10.0 mi North 5.8 mph - N/A   Clear
7:56 PM 60.1 °F - 51.1 °F 72% 29.95 in 10.0 mi WNW 3.5 mph - N/A   Mostly Cloudy
8:56 PM 57.9 °F - 52.0 °F 81% 29.96 in 10.0 mi Calm Calm - N/A   Mostly Cloudy
9:56 PM 55.9 °F - 51.1 °F 84% 29.94 in 10.0 mi Calm Calm - N/A   Clear
10:56 PM 55.9 °F - 52.0 °F 87% 29.92 in 10.0 mi Calm Calm - N/A   Partly Cloudy
11:56 PM 55.9 °F - 52.0 °F 87% 29.90 in 10.0 mi Calm Calm - N/A   Overcast